Location: *
(49.5667°N, 1.3667°W)
Time: 15:13:16
(UTC+00:00)

Nadezhda 3 Rocket - Pass Details

Date: 20 September 2019
Orbit: 958 x 999 km, 82.9° (Epoch: 20 October)

Event Time Altitude Azimuth Distance (km) Brightness Sun altitude
Exits shadow 21:23:43 67° 223° (SW) 1,040 4.0 -29.5°
Maximum altitude 21:24:29 77° 280° (W) 994 4.0 -29.6°
Drops below altitude 10° 21:30:44 10° 7° (N) 2,727 6.8 -30.3°
Sets 21:33:16 0° 9° (N) 3,684 7.5 -30.6°
